• en France
  • Liste des pays
  • À 7 jours
  • Température de l'eau
  • Carte satellitaire
  • Carte météo
  • Widgets météo
  • user-avatar
    Se connecter

    Météo par heure à Santiago del Estero

    Ce jour, 13 Novembre, Mardi

    Heure Température Précipitation Vent Pression Humidité
    00:00 +22°C° 0.8 mm 6 m/s 737 mmHg 76%
    01:00 +22°C° 0.8 mm 8 m/s 738 mmHg 73%
    02:00 +21°C° 0.8 mm 9 m/s 738 mmHg 70%
    03:00 +19°C° 0 mm 9 m/s 738 mmHg 68%
    04:00 +19°C° 0 mm 9 m/s 739 mmHg 66%
    05:00 +18°C° 0 mm 8 m/s 739 mmHg 64%
    06:00 +20°C° 0 mm 8 m/s 740 mmHg 61%
    07:00 +21°C° 0 mm 8 m/s 741 mmHg 57%
    08:00 +22°C° 0 mm 8 m/s 741 mmHg 54%
    09:00 +23°C° 0 mm 8 m/s 741 mmHg 50%
    10:00 +26°C° 0 mm 8 m/s 741 mmHg 46%
    11:00 +28°C° 0 mm 7 m/s 741 mmHg 43%
    12:00 +28°C° 0 mm 7 m/s 740 mmHg 40%
    13:00 +29°C° 0 mm 6 m/s 740 mmHg 38%
    14:00 +30°C° 0 mm 6 m/s 739 mmHg 35%
    15:00 +30°C° 0 mm 6 m/s 739 mmHg 34%
    16:00 +30°C° 0 mm 5 m/s 739 mmHg 34%
    17:00 +30°C° 0 mm 5 m/s 739 mmHg 33%
    18:00 +28°C° 0 mm 4 m/s 739 mmHg 35%
    19:00 +26°C° 0 mm 3 m/s 740 mmHg 38%
    20:00 +24°C° 0 mm 3 m/s 741 mmHg 40%
    21:00 +24°C° 0 mm 3 m/s 741 mmHg 42%
    22:00 +22°C° 0 mm 3 m/s 742 mmHg 44%
    23:00 +21°C° 0 mm 3 m/s 743 mmHg 46%

    Demain, 14 Novembre, Mercredi

    Heure Température Précipitation Vent Pression Humidité
    00:00 +21°C° 0 mm 3 m/s 743 mmHg 50%
    01:00 +20°C° 0 mm 2 m/s 742 mmHg 54%
    02:00 +19°C° 0 mm 2 m/s 742 mmHg 58%
    03:00 +19°C° 0 mm 2 m/s 742 mmHg 61%
    04:00 +19°C° 0 mm 1 m/s 742 mmHg 63%
    05:00 +19°C° 0 mm 1 m/s 742 mmHg 66%
    06:00 +21°C° 0 mm 1 m/s 742 mmHg 60%
    07:00 +23°C° 0 mm 1 m/s 743 mmHg 54%
    08:00 +25°C° 0 mm 1 m/s 743 mmHg 48%
    09:00 +26°C° 0 mm 2 m/s 743 mmHg 42%
    10:00 +28°C° 0 mm 2 m/s 744 mmHg 36%
    11:00 +30°C° 0 mm 2 m/s 744 mmHg 31%
    12:00 +30°C° 0 mm 3 m/s 743 mmHg 29%
    13:00 +31°C° 0 mm 3 m/s 742 mmHg 27%
    14:00 +33°C° 0 mm 3 m/s 742 mmHg 25%
    15:00 +33°C° 0 mm 4 m/s 741 mmHg 25%
    16:00 +33°C° 0 mm 4 m/s 741 mmHg 26%
    17:00 +33°C° 0 mm 4 m/s 740 mmHg 27%
    18:00 +30°C° 0 mm 4 m/s 740 mmHg 30%
    19:00 +28°C° 0 mm 3 m/s 741 mmHg 34%
    20:00 +26°C° 0 mm 3 m/s 741 mmHg 38%
    21:00 +25°C° 0 mm 3 m/s 741 mmHg 39%
    22:00 +25°C° 0 mm 3 m/s 741 mmHg 40%
    23:00 +23°C° 0 mm 4 m/s 742 mmHg 41%

    Après-demain, 15 Novembre, Jeudi

    Heure Température Précipitation Vent Pression Humidité
    00:00 +22°C° 0 mm 3 m/s 741 mmHg 43%
    01:00 +22°C° 0 mm 3 m/s 740 mmHg 45%
    02:00 +21°C° 0 mm 3 m/s 740 mmHg 47%
    03:00 +21°C° 0 mm 3 m/s 739 mmHg 48%
    04:00 +20°C° 0 mm 3 m/s 739 mmHg 49%
    05:00 +20°C° 0 mm 3 m/s 739 mmHg 50%
    06:00 +22°C° 0 mm 4 m/s 739 mmHg 47%
    07:00 +23°C° 0 mm 5 m/s 740 mmHg 44%
    08:00 +26°C° 0 mm 6 m/s 740 mmHg 41%
    09:00 +28°C° 0 mm 6 m/s 740 mmHg 37%
    10:00 +30°C° 0 mm 7 m/s 740 mmHg 34%
    11:00 +33°C° 0 mm 7 m/s 739 mmHg 30%
    12:00 +35°C° 0 mm 7 m/s 739 mmHg 29%
    13:00 +36°C° 0 mm 7 m/s 738 mmHg 28%
    14:00 +38°C° 0 mm 7 m/s 737 mmHg 27%
    15:00 +38°C° 0 mm 6 m/s 737 mmHg 27%
    16:00 +38°C° 0 mm 6 m/s 736 mmHg 28%
    17:00 +36°C° 0 mm 5 m/s 736 mmHg 29%
    18:00 +34°C° 0 mm 5 m/s 737 mmHg 32%
    19:00 +32°C° 0 mm 4 m/s 737 mmHg 36%
    20:00 +29°C° 0 mm 3 m/s 738 mmHg 40%
    21:00 +28°C° 0 mm 3 m/s 739 mmHg 40%
    22:00 +27°C° 0 mm 4 m/s 740 mmHg 40%
    23:00 +26°C° 0 mm 4 m/s 740 mmHg 41%

    16 Novembre, Vendredi

    Heure Température Précipitation Vent Pression Humidité
    00:00 +26°C° 0 mm 4 m/s 740 mmHg 42%
    01:00 +25°C° 0 mm 3 m/s 740 mmHg 44%
    02:00 +24°C° 0 mm 3 m/s 740 mmHg 45%
    03:00 +22°C° 0 mm 3 m/s 740 mmHg 48%
    04:00 +22°C° 0 mm 3 m/s 740 mmHg 50%
    05:00 +21°C° 0 mm 2 m/s 741 mmHg 53%
    06:00 +22°C° 0 mm 3 m/s 741 mmHg 52%
    07:00 +25°C° 0 mm 3 m/s 742 mmHg 50%
    08:00 +26°C° 0 mm 4 m/s 743 mmHg 49%
    09:00 +28°C° 0 mm 4 m/s 743 mmHg 45%
    10:00 +30°C° 0 mm 4 m/s 743 mmHg 41%
    11:00 +33°C° 0 mm 4 m/s 742 mmHg 36%
    12:00 +34°C° 0 mm 5 m/s 741 mmHg 33%
    13:00 +36°C° 0 mm 5 m/s 740 mmHg 31%
    14:00 +37°C° 0 mm 5 m/s 739 mmHg 28%
    15:00 +37°C° 0 mm 5 m/s 739 mmHg 28%
    16:00 +36°C° 0 mm 5 m/s 738 mmHg 28%
    17:00 +36°C° 0 mm 6 m/s 737 mmHg 29%
    18:00 +34°C° 0 mm 5 m/s 737 mmHg 32%
    19:00 +32°C° 0 mm 5 m/s 738 mmHg 36%
    20:00 +29°C° 0 mm 5 m/s 738 mmHg 39%
    21:00 +29°C° 0 mm 5 m/s 738 mmHg 40%
    22:00 +28°C° 0 mm 5 m/s 738 mmHg 42%
    23:00 +28°C° 0 mm 5 m/s 738 mmHg 43%

    17 Novembre, Samedi

    Heure Température Précipitation Vent Pression Humidité
    00:00 +27°C° 0 mm 4 m/s 737 mmHg 44%
    01:00 +27°C° 0 mm 4 m/s 736 mmHg 45%
    02:00 +26°C° 0 mm 3 m/s 736 mmHg 47%
    03:00 +26°C° 0 mm 3 m/s 735 mmHg 49%
    04:00 +25°C° 0 mm 2 m/s 735 mmHg 51%
    05:00 +24°C° 0 mm 2 m/s 735 mmHg 53%
    06:00 +26°C° 0 mm 2 m/s 735 mmHg 50%
    07:00 +28°C° 0 mm 2 m/s 736 mmHg 46%
    08:00 +30°C° 0 mm 2 m/s 736 mmHg 43%
    09:00 +33°C° 0 mm 3 m/s 736 mmHg 40%
    10:00 +36°C° 0 mm 3 m/s 736 mmHg 38%
    11:00 +38°C° 0 mm 4 m/s 736 mmHg 35%
    12:00 +40°C° 0 mm 3 m/s 735 mmHg 31%
    13:00 +42°C° 0 mm 3 m/s 735 mmHg 27%
    14:00 +42°C° 0 mm 2 m/s 734 mmHg 23%
    15:00 +43°C° 0 mm 3 m/s 734 mmHg 22%
    16:00 +43°C° 0 mm 3 m/s 733 mmHg 20%
    17:00 +43°C° 0 mm 4 m/s 733 mmHg 19%
    18:00 +40°C° 0 mm 5 m/s 734 mmHg 23%
    19:00 +37°C° 0 mm 5 m/s 735 mmHg 26%
    20:00 +34°C° 0 mm 6 m/s 736 mmHg 30%
    21:00 +32°C° 0.1 mm 7 m/s 737 mmHg 35%
    22:00 +28°C° 0.1 mm 8 m/s 738 mmHg 40%
    23:00 +26°C° 0.1 mm 8 m/s 739 mmHg 46%

    18 Novembre, Dimanche

    Heure Température Précipitation Vent Pression Humidité
    00:00 +24°C° 0.1 mm 7 m/s 740 mmHg 42%
    01:00 +23°C° 0.1 mm 6 m/s 741 mmHg 39%
    02:00 +23°C° 0.1 mm 5 m/s 742 mmHg 35%
    03:00 +22°C° 0 mm 4 m/s 742 mmHg 33%
    04:00 +22°C° 0 mm 4 m/s 743 mmHg 32%
    05:00 +22°C° 0 mm 4 m/s 744 mmHg 31%
    06:00 +22°C° 0 mm 4 m/s 745 mmHg 32%
    07:00 +22°C° 0 mm 4 m/s 745 mmHg 33%
    08:00 +22°C° 0 mm 4 m/s 746 mmHg 33%
    09:00 +23°C° 0 mm 4 m/s 746 mmHg 32%
    10:00 +25°C° 0 mm 4 m/s 746 mmHg 31%
    11:00 +25°C° 0 mm 4 m/s 746 mmHg 29%
    12:00 +27°C° 0 mm 4 m/s 745 mmHg 27%
    13:00 +28°C° 0 mm 4 m/s 744 mmHg 25%
    14:00 +29°C° 0 mm 4 m/s 744 mmHg 23%
    15:00 +29°C° 0 mm 4 m/s 743 mmHg 24%
    16:00 +29°C° 0 mm 3 m/s 743 mmHg 24%
    17:00 +29°C° 0 mm 3 m/s 742 mmHg 25%
    18:00 +27°C° 0 mm 3 m/s 743 mmHg 28%
    19:00 +25°C° 0 mm 3 m/s 743 mmHg 31%
    20:00 +23°C° 0 mm 2 m/s 743 mmHg 35%
    21:00 +23°C° 0 mm 2 m/s 743 mmHg 37%
    22:00 +21°C° 0 mm 2 m/s 744 mmHg 38%
    23:00 +20°C° 0 mm 2 m/s 744 mmHg 40%
    Voir plus